Location: Berduj
(43.0019°N, 22.3781°E)
Time: 08:08:23
(UTC+00:00)

Daily predictions for brighter satellites

Satellite Brightness Start Highest point End
(mag) Time Altitude Azimuth Time Altitude Azimuth Time Altitude Azimuth
Cosmos 1726 2.7 16:06:55 10° SSE 16:10:15 35° E 16:13:37 10° NNE
Cosmos 2239 Rocket 4.4 16:05:19 10° N 16:11:28 71° E 16:17:35 10° SSE
Lacrosse 5 rocket 2.1 16:07:54 10° NW 16:11:34 51° SW 16:15:25 10° SSE
Meteor 1-21 Rocket 4.5 16:09:28 10° NNW 16:15:21 82° W 16:21:05 10° S
Okean-O 2.6 16:11:01 10° SSE 16:15:27 86° ENE 16:19:54 10° NNW
Cosmos 292 Rocket 3.9 16:11:15 10° S 16:15:50 53° ESE 16:20:28 10° NNE
Cosmos 1821 Rocket 4.0 16:14:01 10° N 16:20:10 89° W 16:26:21 10° S
COSMO-SKYMED 1 2.8 16:16:16 10° NNE 16:20:30 47° E 16:24:40 10° S
Cosmos 1605 Rocket 4.4 16:14:51 10° N 16:20:37 39° ENE 16:26:17 10° SE
Cosmos 1939 Rocket 4.4 16:18:28 10° ESE 16:21:00 17° ENE 16:23:35 10° NNE
Cosmos 1328 4.1 16:17:37 10° N 16:21:27 44° ENE 16:25:13 10° SSE
CZ-4C R/B 4.2 16:17:15 10° NW 16:24:19 48° WSW 16:32:10 10° S
Cosmos 482 Debris 4.4 16:19:41 10° WNW 16:25:14 90° N 16:28:28 10° SE
Cosmos 1833 Rocket 3.4 16:20:43 10° N 16:25:43 32° NE 16:30:43 10° ESE
Cosmos 1825 Rocket 4.3 16:21:32 10° NNW 16:25:50 57° W 16:30:08 10° S
ASTEX 1 3.5 16:21:10 10° NNE 16:26:05 59° E 16:30:58 10° S
Cosmos 1934 Rocket 4.0 16:21:23 10° N 16:27:42 68° E 16:34:02 10° SSE
SMAP 4.3 16:23:37 10° S 16:28:05 46° W 16:32:35 10° NNW
ATLAS 3B R/B 4.2 16:26:30 10° ESE 16:28:28 11° ESE 16:29:33 11° E
Cosmos 1953 Rocket 3.7 16:25:22 10° N 16:29:45 78° W 16:34:03 10° S
Nadezhda 3 Rocket 4.5 16:23:36 10° SSW 16:29:50 68° W 16:36:11 10° N
Meteor 2-10 3.9 16:25:14 10° S 16:30:15 63° E 16:35:13 10° NNE
Cosmos 1461 4.0 16:28:18 10° NNW 16:31:46 26° NE 16:34:34 14° E
Envisat 3.0 16:27:36 10° SSE 16:32:40 81° ENE 16:37:46 10° N
Cosmos 1271 Rocket 3.8 16:30:45 10° NNW 16:34:38 52° W 16:38:31 10° S
OAO 3 Rocket 4.5 16:31:09 10° WSW 16:35:31 32° S 16:39:53 10° ESE
Cosmos 1535 Rocket 4.4 16:30:21 10° N 16:36:35 80° E 16:42:42 10° S
CENTAUR R/B 4.0 16:35:59 10° SE 16:38:36 13° ESE 16:38:44 13° E
CZ-2D R/B 4.1 16:38:39 10° SE 16:41:59 29° ENE 16:45:21 10° N
YAOGAN 6 2.5 16:40:24 10° SSE 16:44:02 72° ENE 16:47:41 10° N
Unknown 3.2 16:43:49 10° WNW 16:46:24 51° SW 16:48:34 14° SE
Cosmos 1356 3.7 16:43:15 10° SSW 16:46:40 72° W 16:50:07 10° N
CZ-4 R/B 1.4 16:43:21 10° SSE 16:47:31 82° ENE 16:51:46 10° N
Lacrosse 5 2.7 16:43:15 10° NW 16:47:52 34° NNE 16:50:43 19° E
Cosmos 1300 3.9 16:45:36 10° SE 16:48:33 21° E 16:49:19 20° ENE
Cosmos 2082 Rocket 2.8 16:46:53 10° N 16:52:08 36° NE 16:55:49 18° ESE
CSL-04 Debris 4.1 16:47:03 10° SSE 16:52:28 75° ENE 16:57:57 10° N
Falcon 9 debris 4.5 16:53:10 10° NW 16:56:08 26° NNE 16:57:09 23° NE
USA 238 DEB 3.8 16:49:51 10° SSW 16:56:17 53° ESE 17:02:54 10° NE
USA 238 3.8 16:49:58 10° SSW 16:56:23 52° ESE 17:03:01 10° NE
Abrixas rocket 2.1 16:54:10 10° WSW 16:57:14 73° NNW 16:58:34 30° NE
Cosmos 1812 Rocket 3.9 16:55:02 10° SSE 16:59:10 42° E 17:03:22 10° NNE
Cosmos 1076 Rocket 4.2 16:57:09 10° N 17:01:06 33° ENE 17:02:52 24° ESE
COSMOS 2406 3.6 16:57:04 10° NNW 17:02:48 67° WSW 17:08:27 10° SSE
Cosmos 1703 3.7 16:59:09 10° NNW 17:03:04 64° W 17:06:55 10° S
SKYMED 2 4.5 17:04:18 10° N 17:08:32 51° WNW 17:12:44 10° SSW
Gbstr 26 Del rocket 4.2 17:02:32 10° NW 17:08:38 65° NNE 17:13:01 25° ESE
YAOGAN 1 2.7 17:04:53 10° S 17:09:12 76° WSW 17:13:33 10° NNW
EO 1 Delta rocket 3.8 17:05:29 10° S 17:10:05 88° WSW 17:15:00 10° N
Unknown 4.3 17:09:05 10° NW 17:12:13 29° NNE 17:12:34 28° NE
Unknown 2.8 17:10:23 10° NW 17:13:31 86° SW 17:14:07 55° SE
Ariane Rocket 3.0 17:10:20 10° SSE 17:15:19 57° ENE 17:20:19 10° N
Cosmos 1153 Rocket 4.3 17:11:49 10° N 17:17:57 71° E 17:24:04 10° SSE
NOSS 3-2 (A) 3.3 17:15:11 10° SSW 17:20:47 62° ESE 17:25:34 17° NE
Shenzhou-11 Module 2.7 17:25:23 10° W 17:27:34 45° WSW 17:27:34 45° WSW
Cosmos 2058 3.5 17:25:43 10° N 17:28:58 40° NE 17:28:58 40° NE
ATLAS 5 CENTAUR R/B 4.4 17:28:06 10° NW 17:29:55 12° NNW 17:31:50 10° N
Cosmos 2278 Rocket 2.7 17:25:41 10° SW 17:31:17 60° WNW 17:36:55 10° NNE
Cosmos 2297 3.9 17:27:18 10° S 17:32:42 46° ESE 17:33:51 40° ENE
MOS 1 4.2 17:41:22 35° SE 17:43:47 69° ENE 17:49:24 10° N
NOSS 3-2 (C) 3.3 17:39:34 10° SSW 17:45:09 60° ESE 17:46:35 47° ENE
SPOT 3 Rocket 4.2 17:47:16 38° NE 17:47:16 38° NE 17:51:03 10° N
Cosmos 2061 Rocket 4.0 17:42:35 10° N 17:48:42 52° ENE 17:49:04 51° E
IRS-1A Rocket 4.2 17:45:40 14° SSE 17:50:26 82° WSW 17:55:59 10° NNW
Cosmos 1939 Rocket 4.0 17:52:12 12° SSW 17:55:34 42° W 17:59:26 10° NNW
Cosmos 44 3.8 17:51:28 10° SSW 17:55:05 46° S 17:55:05 46° S
ADEOS Rocket 3.5 17:50:45 10° NNE 17:58:15 54° E 18:05:09 10° S
SJ 16-02 3.4 17:54:16 10° N 17:55:27 17° N 17:55:27 17° N
ARGOS 4.1 18:01:03 34° NNE 18:01:03 34° NNE 18:04:27 10° N
Cosmos 1459 Rocket 3.9 17:53:15 10° N 17:59:31 85° E 18:02:50 30° S
H-2A R/B 2.9 18:04:36 38° NNE 18:04:36 38° NNE 18:08:09 10° N
Cosmos 1833 Rocket 3.9 18:04:30 10° NW 18:09:43 40° WSW 18:13:53 15° S
Cosmos 1461 4.2 18:07:08 10° NW 18:10:54 35° WSW 18:11:01 35° WSW
ATLAS 3B R/B 2.7 18:11:16 10° SSW 18:16:54 60° S 18:16:54 60° S
Cosmos 1898 Rocket 4.1 18:17:03 10° NNW 18:20:56 50° NNW 18:20:56 50° NNW
Cosmos 2173 Rocket 4.4 18:19:04 10° NNW 18:25:13 61° W 18:28:09 31° SSW
CENTAUR R/B 2.9 18:21:58 10° SSW 18:26:01 49° SSW 18:26:01 49° SSW
Cosmos 1802 Rocket 4.2 18:21:26 10° NNW 18:27:51 72° W 18:29:15 55° SSW
Lacrosse 5 2.8 18:26:06 10° NW 18:29:56 45° W 18:29:56 45° W
Cosmos 2082 Rocket 3.5 18:31:02 10° NW 18:36:11 36° WSW 18:37:44 30° SW
BREEZE M DEB (TANK) 4.3 18:36:01 10° W 18:38:41 35° SW 18:38:41 35° SW
